Subordinato Fedele
| Nome | Subordinato Fedele |
|---|---|
| Predefinito | Loyal Subordinate |
| Tipo | Creatura — zombie |
| Descrizione | Minacciare Tenente — All'inizio del combattimento nel tuo turno, se controlli il tuo comandante, ogni avversario perde 3 punti vita. |
| Gusto | Gli zombie sono più produttivi se adeguatamente nutriti, quindi è consigliabile lasciarli mangiare durante il lavoro. |
| Artista | Kev Walker |
| Espansione | The List #SCD-90 |
| Carta da parati | |
| Immagine |
Di Subordinato Fedele
Subordinato Fedele, Creatura — zombie, progettato da Tomasz Jedruszek rilasciato per la prima volta novembre 2016 in redazione Treasure Chest ed è stato stampato esattamente in 5 forme diverse. Guarda il gioco 1 formato: Commander. Attualmente viene venduto al prezzo più basso di € 0,09.
Questa carta, Subordinato Leale, sarebbe un ottimo aggiunta a un mazzo Commander che si concentra su strategie aggressive e beneficia del drenaggio della vita degli avversari. I mazzi che ruotano attorno al sacrificio di creature, alla generazione di token o all'utilizzo di sinergie dal cimitero potrebbero fare buon uso delle abilità di questa carta. Anche se Subordinato Leale è una scelta solida, potrebbero esserci opzioni migliori a seconda del tema specifico e della strategia del mazzo. Carte come Kokusho, la Stella della Sera o il Mercante Grigio di Asfodel potrebbero fornire effetti di drenaggio della vita più impattanti nei giochi Commander, ma Subordinato Leale potrebbe comunque essere giocato nei mazzi che cercano modi aggiuntivi per mettere pressione agli avversari e drenare i loro totali di vita.
Rugole
13/07/2018
Se non controlli il tuo comandante mentre l'abilità luogotenente si risolve, non ne otterrai l'effetto.
13/07/2018
Se hai più comandanti, devi controllarne solo uno affinché l'effetto luogotenente si verifichi.
Dove comprare
![]() | TCG Player | 24 uni.
| € 0,08 | visita il negozio |
![]() | Card Kingdom | 69 uni.
| € 0,48 | visita il negozio |
![]() | Ebay.com | visita il negozio | ||
![]() | Cardkingdom | visita il negozio | ||
![]() | Printing proxies | $ 0.75 | visita il negozio |
*Questo sito contiene link di affiliazione per i quali potremmo ricevere un compenso
Gruppo
avviso di prezzo ?
Avvisami quando arriva il prezzo
Storico dell'andamento dei prezzi

Storico dei prezzi
| Data | Prezzo minimo | Prezzo medio | Decks |
|---|---|---|---|
| 2024-09-06 | 0.03 EUR | 0.31 EUR | 1 |
| 2024-09-09 | 0.03 EUR | 0.30 EUR | 1 |
| 2024-09-16 | 0.04 EUR | 0.30 EUR | 0 |
| 2024-09-23 | 0.04 EUR | 0.29 EUR | 0 |
| 2024-09-30 | 0.04 EUR | 0.29 EUR | 3 |
| 2024-10-07 | 0.04 EUR | 0.29 EUR | 2 |
| 2024-10-14 | 0.03 EUR | 0.31 EUR | 2 |
| 2024-10-21 | 0.03 EUR | 0.31 EUR | 1 |
| 2024-10-28 | 0.03 EUR | 0.28 EUR | 2 |
| 2024-11-06 | 0.03 EUR | 0.30 EUR | 3 |
| 2024-11-11 | 0.03 EUR | 0.30 EUR | 1 |
| 2024-11-18 | 0.14 EUR | 0.34 EUR | 1 |
| 2024-11-25 | 0.18 EUR | 0.34 EUR | 0 |
| 2024-12-02 | 0.19 EUR | 0.35 EUR | 1 |
| 2024-12-09 | 0.20 EUR | 0.32 EUR | 1 |
| 2024-12-19 | 0.20 EUR | 0.32 EUR | 0 |
| 2024-12-23 | 0.20 EUR | 0.32 EUR | 0 |
| 2024-12-30 | 0.20 EUR | 0.32 EUR | 0 |
| 2025-01-01 | 0.20 EUR | 0.32 EUR | 0 |
| 2025-01-06 | 0.20 EUR | 0.32 EUR | 0 |
| 2025-01-13 | 0.20 EUR | 0.32 EUR | 1 |
| 2025-01-20 | 0.20 EUR | 0.32 EUR | 0 |
| 2025-01-27 | 0.20 EUR | 0.32 EUR | 0 |
| 2025-02-03 | 0.20 EUR | 0.32 EUR | 6 |
| 2025-02-10 | 0.20 EUR | 0.32 EUR | 1 |
| 2025-02-18 | 0.20 EUR | 0.42 EUR | 2 |
| 2025-04-27 | 0.22 EUR | 0.38 EUR | 0 |
| 2025-04-28 | 0.23 EUR | 0.36 EUR | 0 |
| 2025-05-06 | 0.23 EUR | 0.35 EUR | 1 |
| 2025-05-12 | 0.22 EUR | 0.31 EUR | 0 |
| 2025-05-19 | 0.21 EUR | 0.31 EUR | 1 |
| 2025-05-28 | 0.13 EUR | 0.29 EUR | 2 |
| 2025-06-03 | 0.09 EUR | 0.30 EUR | 1 |
| 2025-06-10 | 0.11 EUR | 0.32 EUR | 1 |
| 2025-06-17 | 0.16 EUR | 0.31 EUR | 0 |
| 2025-06-23 | 0.18 EUR | 0.35 EUR | 0 |
| 2025-07-01 | 0.15 EUR | 0.35 EUR | 0 |
| 2025-07-08 | 0.13 EUR | 0.30 EUR | 1 |
| 2025-07-15 | 0.13 EUR | 0.36 EUR | 0 |
| 2025-07-22 | 0.14 EUR | 0.36 EUR | 0 |
| 2025-07-29 | 0.13 EUR | 0.35 EUR | 0 |
| 2025-08-05 | 0.19 EUR | 0.38 EUR | 0 |
| 2025-08-12 | 0.18 EUR | 0.34 EUR | 0 |
| 2025-08-18 | 0.19 EUR | 0.32 EUR | 0 |
| 2025-08-25 | 0.15 EUR | 0.31 EUR | 0 |
| 2025-09-02 | 0.18 EUR | 0.31 EUR | 0 |
| 2025-09-09 | 0.18 EUR | 0.31 EUR | 0 |
| 2025-09-15 | 0.18 EUR | 0.31 EUR | 0 |
| 2025-09-23 | 0.15 EUR | 0.26 EUR | 1 |
| 2025-09-29 | 0.15 EUR | 0.27 EUR | 0 |
| 2025-10-06 | 0.15 EUR | 0.28 EUR | 0 |
| 2025-10-13 | 0.14 EUR | 0.31 EUR | 0 |
| 2025-10-20 | 0.10 EUR | 0.28 EUR | 0 |
| 2025-10-27 | 0.10 EUR | 0.26 EUR | 0 |
| 2025-11-03 | 0.10 EUR | 0.29 EUR | 0 |
| 2025-11-10 | 0.13 EUR | 0.31 EUR | 1 |
| 2025-11-18 | 0.10 EUR | 0.27 EUR | 0 |
| 2025-11-24 | 0.10 EUR | 0.28 EUR | 0 |
| 2025-12-03 | 0.08 EUR | 0.29 EUR | 0 |
| 2025-12-08 | 0.08 EUR | 0.31 EUR | 0 |
| 2025-12-15 | 0.08 EUR | 0.35 EUR | 0 |
| 2025-12-22 | 0.07 EUR | 0.37 EUR | 0 |
| 2025-12-29 | 0.13 EUR | 0.43 EUR | 0 |
| 2026-01-01 | 0.15 EUR | 0.43 EUR | 0 |
| 2026-01-05 | 0.15 EUR | 0.43 EUR | 0 |
| 2026-01-13 | 0.16 EUR | 0.33 EUR | 0 |
| 2026-01-20 | 0.13 EUR | 0.46 EUR | 0 |
| 2026-01-26 | 0.13 EUR | 0.49 EUR | 0 |
| 2026-02-02 | 0.12 EUR | 0.50 EUR | 1 |
| 2026-02-09 | 0.17 EUR | 0.52 EUR | 0 |
| 2026-02-16 | 0.17 EUR | 0.52 EUR | 0 |
| 2026-02-23 | 0.20 EUR | 0.47 EUR | 0 |
| 2026-03-02 | 0.20 EUR | 0.45 EUR | 0 |
| 2026-03-10 | 0.15 EUR | 0.38 EUR | 0 |
| 2026-03-16 | 0.16 EUR | 0.43 EUR | 0 |
| 2026-04-02 | 0.13 EUR | 0.41 EUR | 0 |
| 2026-04-07 | 0.19 EUR | 0.43 EUR | 0 |
| 2026-04-14 | 0.22 EUR | 0.44 EUR | 0 |
| 2026-04-23 | 0.21 EUR | 0.44 EUR | 0 |
| 2026-04-30 | 0.20 EUR | 0.43 EUR | 0 |
| 2026-05-05 | 0.18 EUR | 0.42 EUR | 0 |
| 2026-05-14 | 0.16 EUR | 0.41 EUR | 1 |
| 2026-05-20 | 0.17 EUR | 0.32 EUR | 0 |
| 2026-05-25 | 0.17 EUR | 0.38 EUR | 0 |
| 2026-06-01 | 0.18 EUR | 0.40 EUR | 0 |
| 2026-06-08 | 0.20 EUR | 0.45 EUR | 0 |
| 2026-06-15 | 0.22 EUR | 0.43 EUR | 0 |
| 2026-06-23 | 0.21 EUR | 0.45 EUR | 0 |
| 2026-06-29 | 0.13 EUR | 0.50 EUR | 0 |
| 2026-07-06 | 0.14 EUR | 0.48 EUR | 0 |
| 2026-07-13 | 0.14 EUR | 0.49 EUR | 0 |
| 2026-07-20 | 0.14 EUR | 0.49 EUR | 0 |
| 2026-07-27 | 0.14 EUR | 0.52 EUR | 0 |
| 2026-08-03 | 0.16 EUR | 0.60 EUR | 1 |
| 2026-08-10 | 0.14 EUR | 0.56 EUR | 0 |
| 2026-08-17 | 0.13 EUR | 0.51 EUR | 1 |
| 2026-08-24 | 0.18 EUR | 0.48 EUR | 0 |
| 2026-09-01 | 0.15 EUR | 0.41 EUR | 0 |
Domande frequenti su Subordinato Fedele
Che tipo di carta è Subordinato Fedele?
Subordinato Fedele è Creatura — zombie carta inserita Magic: the Gathering MTG.
Qual è l'effetto della carta Subordinato Fedele?
Minacciare Tenente — All'inizio del combattimento nel tuo turno, se controlli il tuo comandante, ogni avversario perde 3 punti vita.
Qual è il prezzo della carta Subordinato Fedele?
Subordinato Fedele attualmente inizia alle € 0,09. Visualizza i prezzi in tempo reale di più venditori nella sezione Dove acquistare sopra.
Qual è il set originale della carta Subordinato Fedele?
Subordinato Fedele è stato rilasciato per la prima volta nel set Treasure Chest, illustrato da Tomasz Jedruszek.
Qual è la legalità della carta Subordinato Fedele?
La legalità dipende dal formato del torneo: Subordinato Fedele può essere legale in alcuni formati e vietato o limitato in altri. Consulta la ripartizione completa per formato nella sezione Legalità sopra.
Quali sono i formati competitivi della carta Subordinato Fedele?
Subordinato Fedele vede il gioco del metagame competitivo 1 formato/i: Commander.






Reazioni
0
0 Commenti
Diventa il primo a commentare